TimeEST,TemperatureF,Dew PointF,Humidity,Sea Level PressureIn,VisibilityMPH,Wind Direction,Wind SpeedMPH,Gust SpeedMPH,PrecipitationIn,Events,Conditions,WindDirDegrees,DateUTC
12:54 AM,8.1,5.0,87,30.12,10.0,West,5.8,-,N/A,,Clear,280,2013-03-03 05:54:00
1:54 AM,1.9,-2.0,83,30.12,10.0,Calm,Calm,-,N/A,,Clear,0,2013-03-03 06:54:00
2:54 AM,1.0,-2.9,83,30.12,10.0,WNW,4.6,-,N/A,,Clear,300,2013-03-03 07:54:00
3:54 AM,-0.9,-5.1,83,30.11,10.0,WNW,4.6,-,N/A,,Clear,300,2013-03-03 08:54:00
4:54 AM,-2.0,-8.0,76,30.11,10.0,NNW,3.5,-,N/A,,Clear,330,2013-03-03 09:54:00
5:54 AM,-5.1,-9.9,80,30.12,10.0,WNW,3.5,-,N/A,,Clear,290,2013-03-03 10:54:00
7:54 AM,-5.1,-9.9,80,30.13,10.0,WNW,4.6,-,N/A,,Clear,290,2013-03-03 12:54:00
8:54 AM,1.0,-2.0,87,30.13,10.0,WNW,4.6,-,N/A,,Clear,290,2013-03-03 13:54:00
9:54 AM,14.0,5.0,67,30.13,10.0,North,6.9,-,N/A,,Clear,350,2013-03-03 14:54:00
10:54 AM,17.1,6.1,62,30.12,10.0,NNW,3.5,-,N/A,,Clear,340,2013-03-03 15:54:00
11:54 AM,19.0,5.0,54,30.12,10.0,NNE,4.6,-,N/A,,Clear,20,2013-03-03 16:54:00
12:54 PM,21.0,7.0,55,30.10,10.0,North,8.1,-,N/A,,Clear,350,2013-03-03 17:54:00
1:54 PM,21.0,8.1,57,30.09,10.0,NW,6.9,-,N/A,,Clear,310,2013-03-03 18:54:00
2:54 PM,23.0,9.0,55,30.07,10.0,NW,10.4,-,0.00,,Clear,310,2013-03-03 19:54:00
3:54 PM,25.0,10.9,55,30.07,10.0,NW,9.2,-,N/A,,Clear,320,2013-03-03 20:54:00
4:54 PM,24.1,10.9,57,30.08,10.0,WNW,13.8,-,0.00,,Clear,290,2013-03-03 21:54:00
5:54 PM,21.9,10.9,63,30.09,10.0,WNW,11.5,-,N/A,,Clear,300,2013-03-03 22:54:00
6:54 PM,19.9,10.0,65,30.11,10.0,NW,11.5,-,N/A,,Clear,310,2013-03-03 23:54:00
7:54 PM,14.0,8.1,77,30.13,10.0,NNW,8.1,-,N/A,,Clear,330,2013-03-04 00:54:00
8:54 PM,12.9,8.1,81,30.13,10.0,NW,5.8,-,N/A,,Partly Cloudy,310,2013-03-04 01:54:00
9:54 PM,10.9,8.1,88,30.12,10.0,West,3.5,-,N/A,,Clear,270,2013-03-04 02:54:00
10:54 PM,3.9,-0.0,84,30.12,10.0,WNW,4.6,-,N/A,,Clear,300,2013-03-04 03:54:00
11:54 PM,8.1,3.9,83,30.12,10.0,NW,4.6,-,N/A,,Clear,310,2013-03-04 04:54:00